MST,Max TemperatureF,Mean TemperatureF,Min TemperatureF,Max Dew PointF,MeanDew PointF,Min DewpointF,Max Humidity, Mean Humidity, Min Humidity, Max Sea Level PressureIn, Mean Sea Level PressureIn, Min Sea Level PressureIn, Max VisibilityMiles, Mean VisibilityMiles, Min VisibilityMiles, Max Wind SpeedMPH, Mean Wind SpeedMPH, Max Gust SpeedMPH,PrecipitationIn, CloudCover, Events, WindDirDegrees
2012-11-1,69,55,41,43,34,28,70,56,21,30.17,30.05,29.96,10,10,10,13,8,,0.00,2,,201
2012-11-2,55,46,37,37,32,28,81,56,38,30.18,30.06,29.96,10,10,10,13,8,12,0.00,2,,210
2012-11-3,57,45,33,37,33,30,93,74,41,30.20,30.18,30.14,10,10,10,10,7,,0.00,1,,185
2012-11-4,62,48,35,34,30,21,87,59,26,30.36,30.22,30.16,10,10,10,12,7,,0.00,3,,219
2012-11-5,68,50,32,37,32,30,93,64,24,30.34,30.25,30.13,10,10,10,10,6,,0.00,2,,207
2012-11-6,64,52,41,36,31,30,70,51,30,30.31,30.23,30.19,10,10,10,12,8,,0.00,0,,205
2012-11-7,77,57,37,32,29,18,75,52,11,30.19,30.06,29.96,10,10,10,13,8,,0.00,0,,195
2012-11-8,57,46,35,36,27,19,87,51,30,30.02,29.92,29.81,20,10,10,15,9,,0.00,1,,208
2012-11-9,66,50,35,39,33,27,87,64,26,29.81,29.69,29.55,10,10,10,15,6,,0.00,1,,209
2012-11-10,55,38,21,37,29,19,100,70,35,29.83,29.58,29.43,10,7,0,30,17,43,0.00,4,Snow,350
2012-11-11,35,25,15,21,14,7,93,71,38,30.14,29.97,29.83,10,10,10,17,6,29,0.00,5,,228
2012-11-12,46,32,17,25,13,5,73,51,23,30.26,30.21,30.16,10,10,10,14,8,,0.00,0,,204
2012-11-13,51,40,30,28,23,14,87,66,25,30.29,30.21,30.17,10,10,10,10,4,,0.00,1,,223
2012-11-14,57,42,28,30,26,23,93,74,29,30.26,30.19,30.10,10,10,10,10,4,,0.00,2,,183
2012-11-15,46,38,30,32,29,27,93,82,53,30.42,30.31,30.20,10,10,10,9,5,,0.00,4,,218
2012-11-16,59,44,30,36,29,25,87,76,31,30.29,30.18,30.07,10,10,10,14,6,,0.00,1,,217
2012-11-17,64,52,41,30,25,23,61,43,22,30.15,30.08,30.06,20,12,10,18,12,,0.00,1,,195
2012-11-18,64,50,35,28,27,23,75,43,22,30.10,30.03,29.98,20,11,10,17,7,23,0.00,0,,254
2012-11-19,57,44,32,32,25,23,80,54,27,30.25,30.19,30.11,20,10,10,13,8,17,0.00,1,,213
2012-11-20,68,54,41,25,22,18,53,34,15,30.24,30.21,30.12,10,10,10,10,9,,0.00,1,,195
2012-11-21,71,56,41,23,17,9,49,25,11,30.06,29.94,29.90,10,10,10,16,9,,0.00,1,,200
2012-11-22,55,40,26,32,17,9,69,39,19,30.47,30.13,29.93,20,10,10,24,9,33,0.00,1,,198
2012-11-23,53,38,23,21,17,14,74,56,26,30.49,30.39,30.22,20,10,10,13,8,,0.00,1,,154
2012-11-24,62,48,33,18,14,9,52,26,13,30.21,30.07,29.98,20,11,10,22,11,29,0.00,1,,231
2012-11-25,62,48,35,27,16,9,60,33,13,29.99,29.92,29.80,20,11,10,15,8,21,0.00,2,,208
2012-11-26,35,28,21,28,25,19,100,85,60,30.33,30.20,29.97,10,10,5,14,6,,0.00,5,,359
2012-11-27,59,40,21,23,12,1,93,49,10,30.23,30.16,30.11,10,10,10,16,8,21,0.00,1,,202
2012-11-28,59,44,30,21,9,0,42,32,13,30.23,30.16,30.06,10,10,10,13,8,,0.00,2,,197
2012-11-29,64,48,32,23,16,5,52,37,18,30.07,30.04,29.99,15,10,10,13,9,,0.00,1,,193
2012-11-30,62,48,33,28,23,19,60,48,20,30.07,29.98,29.85,20,10,10,13,7,,0.00,1,,234